FW0775 Weather Reports


time (UTC)temp
C
wind
direction
speed
KPH
gust
KPH
rain 1hr
cm
rain 24hr
cm
rain mn
cm
humidity
%
barometer
mb
20260507104547 12 303 0.0 0.0 0.00 0.00 0.00 89 1017.5
20260507103044 12 303 0.0 1.6 0.00 0.00 0.00 89 1017.7
20260507101545 12 303 0.0 1.6 0.00 0.00 0.00 89 1017.8
20260507100040 12 303 0.0 0.0 0.00 0.00 0.00 89 1017.9
20260507094536 12 303 0.0 1.6 0.00 0.00 0.00 89 1018.1
20260507093034 13 303 0.0 0.0 0.00 0.00 0.00 89 1018.2
20260507091540 13 303 0.0 3.2 0.00 0.00 0.00 89 1018.3
20260507090034 13 303 0.0 0.0 0.00 0.00 0.00 89 1018.4
20260507084526 13 303 0.0 0.0 0.00 0.00 0.00 89 1018.7
20260507083022 13 303 0.0 0.0 0.00 0.00 0.00 89 1018.8
20260507081517 13 303 0.0 0.0 0.00 0.00 0.00 89 1019.0
20260507080013 13 303 0.0 1.6 0.00 0.00 0.00 89 1019.2
20260507074512 13 303 0.0 1.6 0.00 0.00 0.00 88 1019.1
20260507073010 13 303 0.0 0.0 0.00 0.00 0.00 89 1019.1
20260507071505 13 303 0.0 1.6 0.00 0.00 0.00 88 1019.0
20260507070101 13 303 0.0 0.0 0.00 0.00 0.00 88 1019.2
20260507064603 13 303 0.0 0.0 0.00 0.00 0.00 88 1019.3
20260507063106 13 303 0.0 0.0 0.00 0.00 0.00 88 1019.4
20260507061600 14 303 0.0 1.6 0.00 0.00 0.00 88 1019.4
20260507060058 14 303 0.0 1.6 0.00 0.00 0.00 87 1019.4
20260507054558 14 303 0.0 3.2 0.00 0.00 0.00 86 1019.4
20260507053113 14 303 0.0 0.0 0.00 0.00 0.00 86 1019.3
20260507051604 15 303 0.0 3.2 0.00 0.00 0.00 85 1019.4
20260507050056 15 303 1.6 4.8 0.00 0.00 0.00 85 1019.3
20260507044556 15 303 0.0 3.2 0.00 0.00 0.00 84 1019.4
20260507043056 15 303 0.0 3.2 0.00 0.00 0.00 84 1019.4
20260507041555 15 304 1.6 4.8 0.00 0.00 0.00 83 1019.3
20260507040057 15 304 1.6 4.8 0.00 0.00 0.00 83 1019.2
20260507034557 15 281 1.6 6.4 0.00 0.00 0.00 82 1019.1
20260507033059 16 279 1.6 6.4 0.00 0.00 0.00 81 1018.8
20260507031553 16 281 1.6 6.4 0.00 0.00 0.00 79 1018.7
20260507030052 16 293 1.6 6.4 0.00 0.00 0.00 77 1018.6
20260507024604 16 275 4.8 11.3 0.00 0.00 0.00 75 1018.5
20260507023053 17 299 3.2 9.7 0.00 0.00 0.00 71 1018.4
20260507021552 17 288 3.2 11.3 0.00 0.00 0.00 70 1018.2
20260507020107 18 288 3.2 12.9 0.00 0.00 0.00 69 1018.2
20260507014554 18 262 1.6 11.3 0.00 0.00 0.00 67 1018.1
20260507013055 19 254 4.8 12.9 0.00 0.00 0.00 67 1018.1
20260507011548 19 280 4.8 16.1 0.00 0.00 0.00 64 1018.1
20260507010050 20 298 3.2 12.9 0.00 0.00 0.00 63 1018.0
20260507004554 20 296 4.8 14.5 0.00 0.00 0.00 63 1018.0
20260507003049 20 273 4.8 14.5 0.00 0.00 0.00 62 1018.0
20260507001545 20 273 3.2 14.5 0.00 0.00 0.00 62 1017.8
20260507000040 21 288 4.8 16.1 0.00 0.00 0.00 61 1017.5
20260506234544 21 277 4.8 17.7 0.00 0.00 0.00 60 1017.6
20260506233048 21 266 4.8 14.5 0.00 0.00 0.00 59 1017.5
20260506231538 21 255 6.4 17.7 0.00 0.00 0.00 62 1017.6
20260506230046 22 294 4.8 17.7 0.00 0.00 0.00 61 1017.6
20260506224537 22 188 6.4 16.1 0.00 0.00 0.00 61 1017.8
20260506223042 22 279 4.8 25.7 0.00 0.00 0.00 61 1017.9
20260506221534 22 320 3.2 14.5 0.00 0.00 0.00 58 1017.9
20260506220033 22 290 4.8 17.7 0.00 0.00 0.00 59 1018.1
20260506214539 23 288 6.4 17.7 0.00 0.00 0.00 56 1018.1
20260506213029 23 240 3.2 17.7 0.00 0.00 0.00 56 1018.4
20260506211529 23 272 3.2 19.3 0.00 0.00 0.00 58 1018.3
20260506210027 23 257 4.8 20.9 0.00 0.00 0.00 58 1018.4
20260506204527 23 309 4.8 14.5 0.00 0.00 0.00 57 1018.5
20260506203025 23 293 4.8 14.5 0.00 0.00 0.00 57 1018.5
20260506201623 23 163 4.8 16.1 0.00 0.00 0.00 56 1018.6
20260506200019 23 277 4.8 14.5 0.00 0.00 0.00 56 1018.6
20260506194516 23 294 6.4 19.3 0.00 0.00 0.00 56 1018.8
20260506193014 23 250 6.4 14.5 0.00 0.00 0.00 57 1018.9
20260506191509 22 283 4.8 12.9 0.00 0.00 0.00 58 1019.1
20260506190009 22 304 8.0 16.1 0.00 0.00 0.00 56 1019.1
20260506184502 22 289 3.2 14.5 0.00 0.00 0.00 58 1019.1
20260506183105 21 234 3.2 12.9 0.00 0.00 0.00 58 1019.5
20260506181622 21 347 4.8 14.5 0.00 0.00 0.00 58 1019.6
20260506180053 21 315 4.8 12.9 0.00 0.00 0.00 57 1019.8
20260506174548 21 270 3.2 12.9 0.00 0.00 0.00 59 1019.9
20260506173056 20 318 4.8 17.7 0.00 0.00 0.00 61 1020.2
20260506171543 20 284 1.6 9.7 0.00 0.00 0.00 61 1020.2
20260506170040 20 260 3.2 12.9 0.00 0.03 0.00 63 1020.3
20260506164537 18 350 1.6 9.7 0.00 0.03 0.00 68 1020.0
20260506163037 17 282 1.6 6.4 0.00 0.03 0.00 70 1020.2
20260506161530 17 284 1.6 6.4 0.00 0.03 0.00 72 1020.2
20260506160025 16 57 1.6 4.8 0.00 0.03 0.00 72 1020.2
20260506154520 15 32 1.6 6.4 0.00 0.03 0.00 72 1020.0
20260506153021 15 46 1.6 6.4 0.00 0.03 0.00 72 1020.1
20260506151513 15 350 0.0 3.2 0.00 0.03 0.00 75 1020.2
20260506150005 15 93 1.6 4.8 0.00 0.66 0.00 75 1020.2
20260506144608 14 96 0.0 6.4 0.00 0.66 0.00 77 1020.2
20260506143052 13 93 1.6 4.8 0.00 0.66 0.00 79 1020.2
20260506141546 13 87 1.6 6.4 0.00 0.66 0.00 81 1020.1
20260506140039 12 219 0.0 1.6 0.00 0.66 0.00 85 1020.1
20260506134533 11 219 0.0 1.6 0.00 0.66 0.00 86 1020.0
20260506133031 11 219 0.0 3.2 0.00 0.66 0.00 86 1019.8
20260506131534 10 219 0.0 3.2 0.00 0.66 0.00 86 1019.8
20260506130020 10 219 0.0 3.2 0.00 0.86 0.00 86 1019.7
20260506124518 10 220 1.6 4.8 0.00 0.86 0.00 86 1019.5
20260506123016 11 221 0.0 1.6 0.00 0.86 0.00 85 1019.3
20260506121514 11 221 0.0 3.2 0.00 0.86 0.00 85 1019.3
20260506120017 11 228 0.0 3.2 0.00 0.86 0.00 85 1019.3
20260506114517 11 231 1.6 4.8 0.00 0.86 0.00 84 1019.3
20260506113014 11 282 1.6 3.2 0.00 0.86 0.00 83 1019.3
20260506111503 11 282 0.0 3.2 0.00 0.86 0.00 83 1019.3
20260506110001 11 282 1.6 3.2 0.00 0.91 0.00 82 1019.3